Showing default

SBIRS GEO 3 (USA 282), 43162

Orbit data source: Space-Track

SBIRS GEO 3 (USA 282), 43162 is a payload satellite owned by USAF AFSPC (US) in GEO that was launched on Sat, 20 Jan 2018 UTC via an ATLAS V 411 launch vehicle from the Air Force Eastern Test Range (AFETR). Payload-class satellites include a variety of spacecraft equipped with specific instruments for various scientific and technological missions. These include communications satellites like Starlink; space stations such as the ISS; scientific satellites like the Hubble; Earth observation satellites from companies like Planet Labs, Umbra, and HawkEye 360; GPS; miniature CubeSats for education and research; and military/defense satellites.

Loading next visibility...
Identifier
43162, 2018-009A
Orbit
GEO
Country
Flag of USUS
Related business
Manufacturer
LMSS
Mission
Operational Defense Early Warn
Bus & Motor
A2100, LEROS 1C?
Mass
~4,500 kg wet, ~2,500 kg dry
Launch date (UTC)
2018-01-20 (8 years ago)
Launch vehicle
ATLAS V 411
Launch site
Air Force Eastern Test Range (AFETR)
Object type
Payload
Rocket body
Debris
Shape & HBR
Box + 2 Pan, 12.5 m
Radar Cross Section
33.213 m², Large (>1 m²)

Expand to show TLE details & history
Last TLE update: 12 hours ago

TLE from 12 hours ago
0 SBIRS GEO 3 (USA 282)
1 43162U 18009A   26062.47683759  .00000115  00000-0  00000-0 0  9996
2 43162   2.1220   6.8678 0002362 333.2155 193.4019  1.00272263 29781
Epoch: 2026-03-03T11:26Z
TLE epoch observation values (Epoch: 2026-03-03T11:26:38.767Z)
Latitude
0.5022°
Longitude
-159.39538°
Altitude
35,795.628 km
Speed
3.074 km/s
True Right ascension
11h 34m 05s
True Declination
0° 30' 06"
Sunlit
Object was in daylight at epoch
Visualization orbit readout
Latitude
Unknown
Longitude
Unknown
Altitude
Unknown
Speed
Unknown
Apparent Right ascension
Unknown
Apparent Declination
Unknown
Sunlit
N/A
Visualization observer readout
Local Sidereal Time
03:24:37
Azimuth
Unknown
Elevation
Unknown
Doppler factor
Unknown
Orbital elements
Apogee altitude
35,797.489 km
Perigee altitude
35,777.57 km
Semi-major axis
42,165.666 km
Eccentricity
0.00024
Inclination
2.122°
RAAN
6.8678°
Arg. of periapsis
333.2155°
True anomaly
193.39563°
Mean anomaly
193.4019°
Eccentric anomaly
193.39876°
Mean motion
0.25067 °/min
Orbital period
1,436.14 mins
BSTAR
0
Loading maneuver chart data...
Computing Atmospheric mass density...
Loading historical data...
Loading historical data...
Loading historical data...
Loading historical data...
Loading historical data...
Loading historical data...
Loading historical data...
Other satellites on launch #9 in the year 2018 (2018-01-20 UTC)

Documentation

Showing up to 5 results
|